Regional Weather Roundup
Issued by NWS

Home | Current Version | Previous Version | Graphics & Text | Print | Product List | Glossary On
Versions: 1 2 3 4 5 6 7 8 9 10 11 12 13 14 15 16 17 18 19 20 21 22 23 24 25 26 27 28 29 30 31 32 33 34 35 36 37 38 39 40 41 42 43 44 45 46 47 48 49 50
000
ASUS44 KMEG 311310
RWRTN
TENNESSEE HOURLY STATE WEATHER ROUNDUP
NATIONAL WEATHER SERVICE MEMPHIS TN
800 AM CDT WED AUG 31 2016

TNZ002-004-019-021-049-052-054-088>092-311400-
WEST TENNESSEE

CITY           SKY/WX    TMP DP  RH WIND       PRES   REMARKS
MEMPHIS INTL   SUNNY     82  72  71 CALM      30.00S
NWS MEMPHIS      N/A     76 N/A N/A MISG        N/A
JACKSON        SUNNY     77  75  93 CALM      30.01S
DYERSBURG      SUNNY     77  72  83 MISG      30.01F
UNION CITY     SUNNY     75  75 100 CALM      30.01S
PARIS          SUNNY     75  73  94 N3        30.02S
HUNTINGDON     SUNNY     77  75  94 CALM      30.00S
LEXINGTON      SUNNY     75  73  94 CALM      30.00S
$$

TNZ008-025-027-028-033-062-065-066-311400-
NORTH MIDDLE TENNESSEE

CITY           SKY/WX    TMP DP  RH WIND       PRES   REMARKS
NASHVILLE      MOSUNNY   77  73  87 CALM      30.02S
PORTLAND       SUNNY     75  73  94 CALM      30.02S
CLARKSVILLE    SUNNY     77  72  84 N7        30.02R
SMYRNA           N/A     77  72  83 MISG      30.03S
COOKEVILLE     SUNNY     75  72  88 CALM      30.03S
GALLATIN       SUNNY     75  73  94 CALM      30.04S
CROSSVILLE     SUNNY     73  69  87 SW3       30.09R
$$

TNZ061-075-076-078-094-096-097-311400-
SOUTH MIDDLE TENNESSEE

CITY           SKY/WX    TMP DP  RH WIND       PRES   REMARKS
FAYETTEVILLE   SUNNY     75  72  88 CALM      30.03S
TULLAHOMA      SUNNY     75  72  88 CALM      30.05S
WINCHESTER     SUNNY     73  70  88 CALM      30.04S
MCMINNVILLE    SUNNY     75  75 100 CALM      30.04S
COLUMBIA       SUNNY    N/A N/A N/A CALM      30.01S
SHELBYVILLE    SUNNY     75  73  94 CALM      30.04R
$$

TNZ017-018-042-046-047-311400-
NORTHEAST TENNESSEE

CITY           SKY/WX    TMP DP  RH WIND       PRES   REMARKS
TRI CITIES     MOSUNNY   72  68  87 CALM      30.07S
ELIZABETHTON   SUNNY     73  66  78 E5        30.08S
$$

TNZ012-013-036-069-073-074-311400-
CENTRAL EAST TENNESSEE

CITY           SKY/WX    TMP DP  RH WIND       PRES   REMARKS
KNOXVILLE      SUNNY     76  68  76 CALM      30.03S
OAK RIDGE      SUNNY     76  69  79 CALM      30.05S
DOWNTOWN KNOXV SUNNY     73  72  94 CALM      30.03S
GATLINBURG     SUNNY     72  66  83 CALM      30.04S
MORRISTOWN     SUNNY     73  70  88 CALM      30.05S
JACKSBORO      SUNNY     73  70  88 CALM      30.08S HAZE
$$

TNZ083-085-099-311400-
SOUTHEAST TENNESSEE

CITY           SKY/WX    TMP DP  RH WIND       PRES   REMARKS
CHATTANOOGA    SUNNY     76  67  73 CALM      30.03S
$$

SKY/WX REPORTED AS FAIR MEANS FEW OR NO CLOUDS BELOW
12 THOUSAND FEET.





USA.gov is the U.S. government's official web portal to all federal, state and local government web resources and services.